SKY138 RJFK-RJBE

Flight info

Callsign SKY138
Flight time 0h 52m
Altitude 35000
Route MIDAI M750 MADOG Y53 SUC Y537 LOVGI Y353 AVKUL
Aircraft B738/M-SDE2E3FGHIRWXY/LB1

Departure

Time 2026-05-05 11:23
Airport Kagoshima Airport (RJFK)

Arrival

Time 2026-05-05 12:16
Airport Kobe Airport (RJBE)
Time Latitude Longitude Altitude Speed Heading
2026-05-05 10:51 31.80165 130.71638 901 ft 0 kts 241°
2026-05-05 11:16 31.80169 130.71647 873 ft 2 kts 239°
2026-05-05 11:16 31.80177 130.71664 875 ft 2 kts 241°
2026-05-05 11:16 31.80185 130.71681 876 ft 2 kts 241°
2026-05-05 11:17 31.80193 130.71698 902 ft 2 kts 241°
2026-05-05 11:17 31.80201 130.71714 901 ft 2 kts 241°
2026-05-05 11:17 31.80209 130.71731 901 ft 2 kts 242°
2026-05-05 11:17 31.80212 130.71750 903 ft 2 kts 269°
2026-05-05 11:18 31.80212 130.71769 906 ft 2 kts 277°
2026-05-05 11:18 31.80208 130.71788 903 ft 2 kts 288°
2026-05-05 11:18 31.80203 130.71803 900 ft 1 kts 312°
2026-05-05 11:18 31.80202 130.71805 900 ft 0 kts 323°
2026-05-05 11:20 31.80204 130.71804 900 ft 3 kts 327°
2026-05-05 11:20 31.80251 130.71773 901 ft 13 kts 331°
2026-05-05 11:20 31.80347 130.71709 905 ft 19 kts 330°
2026-05-05 11:20 31.80473 130.71624 909 ft 23 kts 330°
2026-05-05 11:21 31.80625 130.71520 909 ft 26 kts 329°
2026-05-05 11:21 31.80775 130.71418 911 ft 24 kts 330°
2026-05-05 11:21 31.80918 130.71323 919 ft 23 kts 330°
2026-05-05 11:21 31.81053 130.71229 918 ft 22 kts 330°
2026-05-05 11:22 31.81186 130.71141 920 ft 22 kts 330°
2026-05-05 11:22 31.81315 130.71053 925 ft 21 kts 330°
2026-05-05 11:22 31.81434 130.71002 925 ft 15 kts 16°
2026-05-05 11:22 31.81484 130.71096 924 ft 15 kts 92°
2026-05-05 11:23 31.81413 130.71214 926 ft 33 kts 148°
2026-05-05 11:23 31.80939 130.71533 913 ft 122 kts 150°
2026-05-05 11:23 31.80013 130.72157 1148 ft 173 kts 149°
2026-05-05 11:23 31.78853 130.72796 1983 ft 193 kts 159°
2026-05-05 11:24 31.77555 130.73310 2759 ft 215 kts 159°
2026-05-05 11:24 31.76063 130.73890 3357 ft 215 kts 160°
2026-05-05 11:24 31.74635 130.74430 4078 ft 215 kts 161°
2026-05-05 11:24 31.73237 130.74953 4815 ft 212 kts 162°
2026-05-05 11:25 31.71830 130.75474 5480 ft 213 kts 163°
2026-05-05 11:25 31.70392 130.76003 6098 ft 220 kts 163°
2026-05-05 11:25 31.69410 130.76362 6524 ft 226 kts 164°
2026-05-05 11:25 31.67874 130.76921 7155 ft 235 kts 164°
2026-05-05 11:26 31.66285 130.77498 7789 ft 244 kts 164°
2026-05-05 11:26 31.64636 130.78098 8427 ft 252 kts 163°
2026-05-05 11:26 31.63080 130.79108 9068 ft 265 kts 137°
2026-05-05 11:26 31.62102 130.80973 9741 ft 277 kts 109°
2026-05-05 11:27 31.61844 130.83236 10388 ft 283 kts 94°
2026-05-05 11:27 31.61805 130.85567 10990 ft 287 kts 93°
2026-05-05 11:27 31.61785 130.87859 11585 ft 290 kts 93°
2026-05-05 11:27 31.61752 130.90229 12199 ft 291 kts 94°
2026-05-05 11:28 31.61707 130.92580 12813 ft 292 kts 94°
2026-05-05 11:28 31.61653 130.94961 13455 ft 292 kts 94°
2026-05-05 11:28 31.61598 130.97350 14092 ft 292 kts 94°
2026-05-05 11:28 31.61541 130.99741 14664 ft 296 kts 94°
2026-05-05 11:29 31.61480 131.02203 15102 ft 309 kts 94°
2026-05-05 11:29 31.61416 131.04774 15486 ft 322 kts 94°
2026-05-05 11:29 31.61350 131.07456 15868 ft 335 kts 94°
2026-05-05 11:29 31.61281 131.10258 16252 ft 348 kts 94°
2026-05-05 11:30 31.61209 131.13152 16640 ft 360 kts 94°
2026-05-05 11:30 31.61135 131.16134 17027 ft 372 kts 94°
2026-05-05 11:30 31.61059 131.19218 17403 ft 383 kts 94°
2026-05-05 11:30 31.60979 131.22375 17956 ft 389 kts 94°
2026-05-05 11:31 31.60898 131.25550 18598 ft 392 kts 94°
2026-05-05 11:31 31.60818 131.28717 19147 ft 395 kts 94°
2026-05-05 11:31 31.60734 131.31952 19719 ft 397 kts 94°
2026-05-05 11:31 31.60682 131.35196 20283 ft 401 kts 89°
2026-05-05 11:32 31.61297 131.38396 20875 ft 404 kts 65°
2026-05-05 11:32 31.62633 131.41284 21517 ft 403 kts 58°
2026-05-05 11:32 31.64092 131.44106 22046 ft 406 kts 57°
2026-05-05 11:32 31.65579 131.46929 22636 ft 408 kts 57°
2026-05-05 11:33 31.67077 131.49779 23167 ft 411 kts 57°
2026-05-05 11:33 31.68571 131.52640 23736 ft 412 kts 57°
2026-05-05 11:33 31.70063 131.55523 24199 ft 414 kts 57°
2026-05-05 11:33 31.71554 131.58424 24625 ft 416 kts 57°
2026-05-05 11:34 31.73046 131.61342 25095 ft 417 kts 58°
2026-05-05 11:34 31.74539 131.64271 25550 ft 418 kts 58°
2026-05-05 11:34 31.76021 131.67184 25937 ft 422 kts 58°
2026-05-05 11:34 31.77538 131.70169 26289 ft 427 kts 58°
2026-05-05 11:35 31.79059 131.73163 26540 ft 434 kts 58°
2026-05-05 11:35 31.80623 131.76243 26805 ft 442 kts 58°
2026-05-05 11:35 31.82207 131.79366 27028 ft 449 kts 58°
2026-05-05 11:35 31.83828 131.82564 27100 ft 462 kts 58°
2026-05-05 11:36 31.85495 131.85856 27161 ft 475 kts 58°
2026-05-05 11:36 31.87212 131.89251 27280 ft 485 kts 58°
2026-05-05 11:36 31.88950 131.92689 27553 ft 491 kts 58°
2026-05-05 11:36 31.90701 131.96158 27804 ft 496 kts 59°
2026-05-05 11:37 31.92453 131.99631 28033 ft 501 kts 59°
2026-05-05 11:37 31.94242 132.03180 28300 ft 506 kts 59°
2026-05-05 11:37 31.96047 132.06765 28585 ft 511 kts 59°
2026-05-05 11:37 31.97865 132.10379 28845 ft 515 kts 59°
2026-05-05 11:38 31.99701 132.14031 29120 ft 520 kts 59°
2026-05-05 11:38 32.01548 132.17710 29383 ft 524 kts 59°
2026-05-05 11:38 32.03408 132.21419 29624 ft 527 kts 59°
2026-05-05 11:38 32.05278 132.25151 29894 ft 531 kts 59°
2026-05-05 11:39 32.07168 132.28926 30199 ft 534 kts 59°
2026-05-05 11:39 32.09060 132.32709 30445 ft 537 kts 59°
2026-05-05 11:39 32.10997 132.36477 30675 ft 539 kts 54°
2026-05-05 11:39 32.13242 132.39928 31014 ft 536 kts 46°
2026-05-05 11:40 32.15869 132.43031 31334 ft 531 kts 36°
2026-05-05 11:40 32.18749 132.45769 31713 ft 528 kts 33°
2026-05-05 11:40 32.21651 132.48439 32097 ft 527 kts 33°
2026-05-05 11:40 32.24545 132.51091 32460 ft 526 kts 33°
2026-05-05 11:41 32.27426 132.53753 32827 ft 525 kts 33°
2026-05-05 11:41 32.30294 132.56434 33200 ft 524 kts 34°
2026-05-05 11:41 32.33143 132.59123 33575 ft 523 kts 34°
2026-05-05 11:41 32.35977 132.61813 33887 ft 523 kts 34°
2026-05-05 11:42 32.38781 132.64482 34130 ft 524 kts 34°
2026-05-05 11:42 32.41632 132.67199 34371 ft 525 kts 34°
2026-05-05 11:42 32.44479 132.69913 34604 ft 526 kts 34°
2026-05-05 11:42 32.47332 132.72634 34835 ft 526 kts 34°
2026-05-05 11:43 32.50181 132.75352 35110 ft 527 kts 33°
2026-05-05 11:43 32.53038 132.78079 35215 ft 530 kts 33°
2026-05-05 11:43 32.55930 132.80838 35206 ft 535 kts 34°
2026-05-05 11:44 32.61784 132.86435 35220 ft 545 kts 34°
2026-05-05 11:44 32.67746 132.92151 35217 ft 554 kts 34°
2026-05-05 11:45 32.73744 132.97912 35204 ft 558 kts 34°
2026-05-05 11:45 32.79391 133.04319 35181 ft 567 kts 45°
2026-05-05 11:46 32.84660 133.11285 35200 ft 566 kts 45°
2026-05-05 11:46 32.89967 133.18204 35238 ft 564 kts 44°
2026-05-05 11:47 32.95320 133.25033 35198 ft 562 kts 41°
2026-05-05 11:47 33.01116 133.31217 35216 ft 557 kts 36°
2026-05-05 11:48 33.09986 133.40107 35222 ft 556 kts 36°
2026-05-05 11:48 33.15801 133.46090 35238 ft 556 kts 36°
2026-05-05 11:49 33.21618 133.52150 35130 ft 552 kts 37°
2026-05-05 11:49 33.24477 133.55133 34701 ft 552 kts 37°
2026-05-05 11:49 33.27355 133.58132 34252 ft 549 kts 37°
2026-05-05 11:50 33.30258 133.61160 33747 ft 547 kts 37°
2026-05-05 11:50 33.33089 133.64111 33069 ft 547 kts 37°
2026-05-05 11:50 33.35963 133.67110 32433 ft 547 kts 37°
2026-05-05 11:50 33.38835 133.70110 31841 ft 546 kts 36°
2026-05-05 11:51 33.41686 133.73091 31235 ft 545 kts 36°
2026-05-05 11:51 33.44546 133.76073 30674 ft 544 kts 36°
2026-05-05 11:51 33.47408 133.79006 30230 ft 536 kts 33°
2026-05-05 11:51 33.50328 133.81707 29872 ft 523 kts 29°
2026-05-05 11:52 33.53320 133.84083 29513 ft 509 kts 23°
2026-05-05 11:52 33.56396 133.86090 29040 ft 499 kts 18°
2026-05-05 11:52 33.59478 133.88069 28280 ft 504 kts 20°
2026-05-05 11:52 33.62628 133.89681 27508 ft 493 kts
2026-05-05 11:53 33.65940 133.90256 26749 ft 476 kts 356°
2026-05-05 11:53 33.69218 133.90542 26114 ft 469 kts 352°
2026-05-05 11:53 33.72494 133.90561 25358 ft 472 kts 354°
2026-05-05 11:53 33.75795 133.90762 24697 ft 475 kts 358°
2026-05-05 11:54 33.79081 133.91105 24007 ft 474 kts 360°
2026-05-05 11:54 33.82355 133.91507 23258 ft 472 kts
2026-05-05 11:54 33.85623 133.91911 22471 ft 470 kts
2026-05-05 11:54 33.88868 133.92269 21669 ft 467 kts
2026-05-05 11:55 33.92102 133.92599 20920 ft 465 kts
2026-05-05 11:55 33.95205 133.92937 20209 ft 459 kts
2026-05-05 11:55 33.98372 133.93298 19528 ft 447 kts
2026-05-05 11:55 34.01410 133.93652 19075 ft 430 kts
2026-05-05 11:56 34.04244 133.93986 18592 ft 418 kts
2026-05-05 11:56 34.07094 133.94313 18090 ft 406 kts
2026-05-05 11:56 34.09880 133.94632 17558 ft 396 kts
2026-05-05 11:56 34.12559 133.94938 17033 ft 387 kts
2026-05-05 11:57 34.15212 133.95239 16522 ft 379 kts
2026-05-05 11:57 34.17816 133.95537 16016 ft 372 kts
2026-05-05 11:57 34.20341 133.95826 15528 ft 366 kts
2026-05-05 11:57 34.22851 133.96114 15046 ft 360 kts
2026-05-05 11:58 34.25330 133.96399 14568 ft 354 kts
2026-05-05 11:58 34.27737 133.96675 14107 ft 349 kts
2026-05-05 11:58 34.30139 133.96951 13605 ft 345 kts
2026-05-05 11:58 34.32520 133.97226 13090 ft 341 kts
2026-05-05 11:59 34.34870 133.97496 12570 ft 337 kts
2026-05-05 11:59 34.37191 133.97816 12077 ft 334 kts 10°
2026-05-05 11:59 34.39381 133.98696 11580 ft 331 kts 25°
2026-05-05 11:59 34.41461 133.99873 11106 ft 328 kts 25°
2026-05-05 12:00 34.43528 134.01026 10624 ft 326 kts 25°
2026-05-05 12:00 34.45586 134.02158 10200 ft 323 kts 26°
2026-05-05 12:00 34.47596 134.03283 10049 ft 312 kts 26°
2026-05-05 12:00 34.49511 134.04358 9995 ft 301 kts 26°
2026-05-05 12:01 34.51341 134.05475 9975 ft 288 kts 38°
2026-05-05 12:01 34.52626 134.07229 10021 ft 275 kts 65°
2026-05-05 12:01 34.53333 134.09372 10025 ft 273 kts 79°
2026-05-05 12:01 34.53798 134.11619 9888 ft 278 kts 81°
2026-05-05 12:02 34.54235 134.13922 9638 ft 281 kts 81°
2026-05-05 12:02 34.54670 134.16224 9379 ft 279 kts 81°
2026-05-05 12:02 34.55104 134.18506 9123 ft 276 kts 81°
2026-05-05 12:02 34.55539 134.20758 9007 ft 268 kts 80°
2026-05-05 12:03 34.55960 134.22922 8981 ft 261 kts 80°
2026-05-05 12:03 34.56377 134.25057 8979 ft 261 kts 80°
2026-05-05 12:03 34.56788 134.27168 9012 ft 267 kts 80°
2026-05-05 12:03 34.57213 134.29348 9015 ft 270 kts 80°
2026-05-05 12:04 34.57647 134.31563 9013 ft 269 kts 80°
2026-05-05 12:04 34.58080 134.33766 9006 ft 268 kts 80°
2026-05-05 12:04 34.58517 134.35990 9015 ft 267 kts 80°
2026-05-05 12:04 34.58942 134.38155 9010 ft 267 kts 80°
2026-05-05 12:05 34.59372 134.40350 9006 ft 266 kts 80°
2026-05-05 12:05 34.59801 134.42541 9008 ft 266 kts 80°
2026-05-05 12:05 34.60229 134.44725 9015 ft 266 kts 80°
2026-05-05 12:05 34.60662 134.46943 8767 ft 276 kts 80°
2026-05-05 12:06 34.61110 134.49249 8398 ft 282 kts 79°
2026-05-05 12:06 34.61558 134.51544 8032 ft 283 kts 79°
2026-05-05 12:06 34.62010 134.53856 7660 ft 279 kts 79°
2026-05-05 12:06 34.62456 134.56136 7298 ft 275 kts 79°
2026-05-05 12:07 34.62887 134.58348 6971 ft 264 kts 79°
2026-05-05 12:07 34.63306 134.60500 6609 ft 260 kts 78°
2026-05-05 12:07 34.63721 134.62635 6214 ft 257 kts 78°
2026-05-05 12:07 34.64128 134.64735 5833 ft 254 kts 79°
2026-05-05 12:08 34.64531 134.66815 5441 ft 251 kts 79°
2026-05-05 12:08 34.64930 134.68871 5070 ft 249 kts 79°
2026-05-05 12:08 34.65324 134.70910 4689 ft 247 kts 79°
2026-05-05 12:08 34.65715 134.72932 4308 ft 245 kts 80°
2026-05-05 12:09 34.66098 134.74913 3931 ft 243 kts 80°
2026-05-05 12:09 34.66239 134.76920 3529 ft 236 kts 106°
2026-05-05 12:09 34.65796 134.78757 3187 ft 231 kts 112°
2026-05-05 12:09 34.65327 134.80608 3047 ft 226 kts 112°
2026-05-05 12:10 34.64866 134.82444 3029 ft 229 kts 112°
2026-05-05 12:10 34.64396 134.84312 3033 ft 234 kts 111°
2026-05-05 12:10 34.63919 134.86216 3017 ft 236 kts 111°
2026-05-05 12:10 34.63442 134.88128 3011 ft 235 kts 111°
2026-05-05 12:11 34.62972 134.90021 3013 ft 234 kts 111°
2026-05-05 12:11 34.62501 134.91914 3009 ft 234 kts 111°
2026-05-05 12:11 34.62190 134.93164 3006 ft 233 kts 111°
2026-05-05 12:11 34.61719 134.95053 3006 ft 233 kts 111°
2026-05-05 12:12 34.61275 134.96913 3011 ft 234 kts 106°
2026-05-05 12:12 34.61512 134.99536 3030 ft 229 kts 81°
2026-05-05 12:12 34.61705 135.01350 3010 ft 210 kts 89°
2026-05-05 12:12 34.61769 135.02519 2939 ft 202 kts 89°
2026-05-05 12:13 34.61877 135.04183 2725 ft 196 kts 89°
2026-05-05 12:13 34.61995 135.05793 2482 ft 186 kts 88°
2026-05-05 12:13 34.62110 135.07291 2233 ft 175 kts 88°
2026-05-05 12:13 34.62220 135.08733 2012 ft 170 kts 88°
2026-05-05 12:14 34.62328 135.10167 1786 ft 172 kts 88°
2026-05-05 12:14 34.62438 135.11606 1574 ft 169 kts 86°
2026-05-05 12:14 34.62545 135.12997 1379 ft 165 kts 87°
2026-05-05 12:14 34.62653 135.14403 1159 ft 167 kts 86°
2026-05-05 12:15 34.62757 135.15823 953 ft 166 kts 86°
2026-05-05 12:15 34.62822 135.17202 723 ft 162 kts 86°
2026-05-05 12:15 34.62943 135.18555 457 ft 162 kts 83°
2026-05-05 12:15 34.63066 135.19890 278 ft 156 kts 84°
2026-05-05 12:16 34.63177 135.21205 48 ft 155 kts 85°
2026-05-05 12:16 34.63268 135.22367 29 ft 111 kts 84°
2026-05-05 12:16 34.63320 135.23015 26 ft 34 kts 84°
2026-05-05 12:16 34.63384 135.23195 27 ft 10 kts
2026-05-05 12:17 34.63415 135.23193 28 ft 4 kts 356°
2026-05-05 12:17 34.63444 135.23189 29 ft 4 kts 348°
2026-05-05 12:17 34.63476 135.23165 30 ft 9 kts 320°
2026-05-05 12:17 34.63490 135.23057 30 ft 17 kts 264°
2026-05-05 12:18 34.63477 135.22913 31 ft 17 kts 266°
2026-05-05 12:18 34.63536 135.22872 30 ft 11 kts 356°
2026-05-05 12:18 34.63604 135.22864 30 ft 5 kts 354°
2026-05-05 12:18 34.63609 135.22863 30 ft 1 kts 354°
2026-05-05 12:19 34.63611 135.22863 31 ft 0 kts 354°